Regional Weather Roundup
Issued by NWS Newport/Morehead, NC

Current Version | Previous Version | Graphics & Text | Print | Product List | Glossary On
Versions: 1 2 3 4 5 6 7 8 9 10 11 12 13 14 15 16 17 18 19 20 21 22 23 24 25 26 27 28 29 30 31 32 33 34 35 36 37 38 39 40 41 42 43 44 45 46 47 48 49 50
000 ASUS42 KMHX 211910 RWRMHX WEATHER ROUNDUP FOR EASTERN NORTH CAROLINA NATIONAL WEATHER SERVICE NEWPORT/MOREHEAD CITY NC 300 PM EDT SUN SEP 21 2014 NOTE: "FAIR" INDICATES FEW OR NO CLOUDS BELOW 12,000 FEET WITH NO SIGNIFICANT WEATHER AND/OR OBSTRUCTIONS TO VISIBILITY NCZ015>017-031-032-045>047-102-103-212000- NORTH COAST CITY SKY/WX TMP DP RH WIND PRES REMARKS EDENTON PTSUNNY 79 65 61 NW9 29.76F ELIZABETH CITY PTSUNNY 78 67 68 NW12 29.74F KITTY HAWK CLOUDY 76 70 80 NW5 29.73S MANTEO CLOUDY 76 70 83 NW9 29.74S $$ NCZ045>047-081-094-103-104-212000- CENTRAL COAST CITY SKY/WX TMP DP RH WIND PRES REMARKS FRISCO PTSUNNY 76 71 85 NW10 29.75R SWANQUARTER N/A 81 N/A N/A NW16 29.74S $$ NCZ095-097-098-100-101-212000- SOUTHERN COAST CITY SKY/WX TMP DP RH WIND PRES REMARKS BEAUFORT MOSUNNY 82 66 58 NW14 29.80R CEDAR ISLAND N/A 77 N/A N/A NW10 29.82S JACKSONVILLE SUNNY 83 64 52 W13 29.81F NEWPORT NOT AVBL PINEY ISLAND PTCLDY 81 65 58 NW15 29.78S WILMINGTON MOSUNNY 82 62 50 W12 29.83F $$ NCZ011>013-027>030-043-044-078>080-089-090>093-098-212000- COASTAL PLAIN CITY SKY/WX TMP DP RH WIND PRES REMARKS AHOSKIE SUNNY 81 61 50 W3 29.77F CLINTON MOSUNNY 85 65 50 W8 29.82F ELIZABETHTOWN SUNNY 85 59 41 W9 29.83F GOLDSBORO MOSUNNY 83 66 57 W6 29.79F GREENVILLE SUNNY 82 63 51 NW7 29.81F HAVELOCK MOSUNNY 82 62 50 W15G25 29.81S KENANSVILLE MOSUNNY 83 59 44 W7 29.82F KINSTON MOSUNNY 82 63 51 W6 29.80F NEW BERN MOSUNNY 81 59 47 NW9G21 29.81S RICHLANDS SUNNY 82 61 47 W12 29.81F ROANOKE RAPIDS NOT AVBL ROCKY MOUNT MOSUNNY 84 62 47 W7 29.79F WASHINGTON MOSUNNY 80 62 55 NW8 29.78F WHITEVILLE SUNNY 83 60 46 W9 29.85S $$ AMZ130-135-150-152-154-156-158-170-250-252-270-ANZ085-086-088-633-658-670-212000- MARINE OBSERVATIONS STATION/POSITION TIME TEMP WIND PRES WAVE SWELL AIR SEA DIR/SP/G HT/PER HT/PER (UTC) (F) (DEG/KT/KT) (MB) (FT/S) (FT/S) CHESAPEAKE LIGHT 1800 74 310/ 20/ 21 1007.5 BUOY 44014 1900 73 76 340/ 21/ 23 1004.0 7/ 8 5/ 8 DUCK 1900 75 74 310/ 14/ 16 1005.9 2E DUCK 1900 N/A 5/ 8 2/11 OREGON INLET 1900 76 74 310/ 13/ 16 1006.8 BUOY 44095 1900 74 N/A 8/ 9 2/11 20E OREGON INLET NOT AVBL HATTERAS CG NOT AVBL DIAMOND BUOY 1900 77 310/ 17/ 21 1007.0 7/ 8 5/ 8 CAPE LOOKOUT 1800 78 310/ 12/ 14 1008.9 BEAUFORT LAB 1900 79 75 360/ 8/ 11 1008.4 30 SE NEW RIVER 1900 77 83 300/ 17/ 21 1009.8 5/ 9 3/ 9 5 SE WRIGHTSVILL 1800 76 79 320/ 12/ 14 N/A BUOY 41002 1753 80 81 270/ 19/ 23 1011.8 11/ 8 BUOY 41004 1900 78 81 280/ 10/ 12 1012.8 4/ 6 3/ 6 $$

USA.gov is the U.S. government's official web portal to all federal, state and local government web resources and services.